Location: Axtheid
(49.6213°N, 11.8205°E)
Time: 13:18:50
(UTC+00:00)

Cosmos 2026 Rocket - Pass Details

Date: 24 January 2021
Orbit: 940 x 1000 km, 82.9° (Epoch: 26 February)

Event Time Altitude Azimuth Distance (km) Brightness Sun altitude
Rises 17:37:18 0° 174° (S) 3,609 7.0 -16.3°
Reaches altitude 10° 17:39:47 10° 170° (S) 2,675 6.3 -16.7°
Maximum altitude 17:45:46 59° 93° (E) 1,110 4.0 -17.7°
Drops below altitude 10° 17:51:53 10° 16° (NNE) 2,733 6.1 -18.7°
Sets 17:54:27 0° 13° (NNE) 3,694 6.8 -19.1°
